Tracking 25612 objects as of 20-May-2022
HD Live streaming from Space Station
objects crossing your sky now

SL-19 R/B

Track SL-19 R/B now!
10-day predictions


NORAD ID: 39252
Int'l Code: 2013-048D
Perigee: 1,177.6 km
Apogee: 1,520.3 km
Inclination: 82.5 °
Period: 112.5 minutes
Semi major axis: 7719 km
RCS: Unknown
Launch date: September 11, 2013
Source: Commonwealth of Independent States (former USSR) (CIS)
Launch site: PLESETSK MISSILE AND SPACE COMPLEX (PKMTR)

Note: This is a ROCKET BODY
aabbcc
Your satellite tracking list
Your tracking list is empty




NASA's NSSDC Master Catalog

Two Line Element Set (TLE):
1 39252U 13048D   22140.51052254  .00000026  00000-0  53575-4 0  9997
2 39252  82.4877  50.4624 0221988  57.4502 304.7830 12.79915984405844
Source of the keplerian elements: AFSPC